Overview Statistics Trail Chart Weather Telemetry Raw packets
 

This is the latest recevied weather packets stored in our database for station/object JA0BES-13. If no packets are shown the sender has not sent any weather packets the latest 10 day(s).

<< 36 37 38 39 40 41 >>
Time Temp. Humidity Pressure Rain* Wind** Luminosity Snow
1787872537 21.67° C 100% 1010.7 hPa 1.27 mm - - -
1787871937 21.11° C 100% 1011 hPa 1.27 mm - - -
1787871337 21.11° C 100% 1010.9 hPa 1.27 mm - - -
1787870737 21.11° C 100% 1011 hPa 1.27 mm - - -
1787870136 21.11° C 100% 1010.9 hPa 1.27 mm - - -
1787869536 20.56° C 100% 1010.7 hPa 1.27 mm - - -
1787868935 20.56° C 100% 1010.6 hPa 1.27 mm - - -
1787868335 20° C 100% 1009.6 hPa 1.27 mm - - -
1787867735 20° C 100% 1010 hPa 1.27 mm - - -
1787867134 20° C 100% 1010.3 hPa 1.27 mm - - -
1787865932 20° C 100% 1010 hPa 1.27 mm - - -
1787865331 20° C 100% 1010.3 hPa 1.02 mm - - -
1787864731 20.56° C 100% 1010.5 hPa 1.02 mm - - -
1787834710 20.56° C 100% 1009.1 hPa 36.32 mm - - -
1787834110 20.56° C 100% 1008.7 hPa 36.32 mm - - -
1787833510 20.56° C 100% 1008.9 hPa 36.32 mm - - -
1787832909 20.56° C 100% 1008.9 hPa 36.32 mm - - -
1787832309 20.56° C 100% 1008.8 hPa 36.32 mm - - -
1787831708 20.56° C 100% 1009.6 hPa 36.32 mm - - -
1787831108 20.56° C 100% 1009.1 hPa 36.32 mm - - -
1787830509 21.11° C 100% 1010.3 hPa 36.32 mm - - -
1787829908 21.11° C 100% 1010.3 hPa 36.32 mm - - -
1787829307 21.11° C 100% 1010.3 hPa 36.32 mm - - -
1787828707 21.11° C 100% 1010.3 hPa 36.32 mm - - -
1787828106 21.11° C 100% 1010.1 hPa 36.32 mm - - -

* Rain since midnight (hover to see other rain measurements)
** Current wind speed in m/s (hover to see current wind gust speed)